Douglas, WY

6:18 AM MDT on September 25, 2016 (GMT -0600)
Converse County

Weather History for KDGW - March, 2014

Change the Weather History Date:

Tuesday, March 18, 2014

  Actual Average Record
Temperature  
Mean Temperature 27 °F 36 °F  
Max Temperature 35 °F 50 °F 73 °F (2007)
Min Temperature 18 °F 23 °F 6 °F (2002)
Degree Days  
Heating Degree Days 38 29  
Month to date heating degree days 533 569  
Since 1 July heating degree days 6123 5969  
Cooling Degree Days 0 0  
Month to date cooling degree days 0 0  
Year to date cooling degree days 0 0  
Moisture  
Dew Point 25 °F    
Average Humidity 81    
Maximum Humidity 100    
Minimum Humidity 61    
Precipitation  
Precipitation T in 0.03 in 0.21 in (2003)
Month to date precipitation 0.09 0.41  
Year to date precipitation 1.55 1.20  
Sea Level Pressure  
Sea Level Pressure 29.77 in    
Wind  
Wind Speed 18 mph (NNW)    
Max Wind Speed 47 mph    
Max Gust Speed 58 mph    
Visibility 5 miles    
Events Fog , Snow    
T = Trace of Precipitation, MM = Missing Value Source: NWS Daily Summary

Daily Weather History Graph

Daily Weather History Graph

Search for Another Location

Airport or City:

Trip Planner

Search our weather history database for the weather conditions in past years. The results will help you decide how hot, cold, wet, or windy it might be!

Date:

Astronomy

Mar. 18, 2014 Rise Set
Actual Time 7:08 AM MDT 7:11 PM MDT
Civil Twilight 6:40 AM MDT 7:39 PM MDT
Nautical Twilight 6:07 AM MDT 8:12 PM MDT
Astronomical Twilight 5:33 AM MDT 8:46 PM MDT
Moon 9:35 PM MDT (3/18) 7:55 AM MDT (3/18)
Length of Visible Light 12h 59m
Length of Day
12h 03m
Waning Gibbous, 96% of the Moon is Illuminated
Mar 18
Waning Gibbous
Mar 23
Last Quarter
Mar 30
New
Apr 7
First Quarter
Apr 15
Full

Hourly Weather History & Observations

Time (MDT) Temp. Windchill Dew Point Humidity Pressure Visibility Wind Dir Wind Speed Gust Speed Precip Events Conditions
12:21 AM 33.1 °F 22.6 °F 30.9 °F 92% 29.47 in 1.8 mi NW 16.1 mph - 0.00 in Snow Light Snow
12:24 AM 32.0 °F 20.5 °F 30.9 °F 96% 29.47 in 1.0 mi NW 18.4 mph 25.3 mph 0.00 in Snow Light Snow
12:31 AM 32.0 °F 20.8 °F 30.9 °F 96% 29.48 in 0.5 mi NW 17.3 mph 25.3 mph 0.00 in Fog , Snow Snow
12:53 AM 32.0 °F 18.9 °F 30.9 °F 96% 29.42 in 0.8 mi NW 24.2 mph - 0.00 in Snow Light Snow
1:00 AM 32.0 °F 18.9 °F 30.0 °F 92% 29.48 in 1.0 mi NW 24.2 mph - 0.00 in Snow Light Snow
1:20 AM 30.9 °F 18.7 °F 28.9 °F 92% 29.49 in 1.0 mi NW 19.6 mph 28.8 mph 0.00 in Snow Light Snow
1:35 AM 30.9 °F 18.4 °F 28.9 °F 92% 29.49 in 1.8 mi NNW 20.7 mph 28.8 mph 0.00 in Snow Light Snow
1:39 AM 32.0 °F 19.2 °F 28.9 °F 88% 29.49 in 2.0 mi NNW 23.0 mph 28.8 mph 0.00 in Snow Light Snow
1:53 AM 30.9 °F 16.9 °F 28.0 °F 89% 29.44 in 3.0 mi North 26.5 mph 34.5 mph 0.00 in Snow Light Snow
2:01 AM 30.9 °F 16.9 °F 28.0 °F 89% 29.49 in 1.8 mi North 26.5 mph 38.0 mph 0.00 in Snow Light Snow
2:18 AM 30.9 °F 16.2 °F 28.0 °F 89% 29.50 in 1.0 mi North 29.9 mph 42.6 mph 0.00 in Snow Light Snow
2:20 AM 30.9 °F 16.4 °F 28.0 °F 89% 29.50 in 1.0 mi North 28.8 mph 40.3 mph 0.00 in Snow Light Snow
2:22 AM 30.0 °F 14.9 °F 28.0 °F 92% 29.51 in 0.8 mi North 29.9 mph 40.3 mph 0.00 in Snow Light Snow
2:29 AM 30.0 °F 13.6 °F 28.0 °F 92% 29.51 in 0.5 mi North 36.8 mph 44.9 mph 0.00 in Fog , Snow Snow
2:36 AM 28.9 °F 12.5 °F 27.0 °F 92% 29.51 in 0.2 mi North 34.5 mph 44.9 mph 0.00 in Fog , Snow Heavy Snow
2:53 AM 28.9 °F 12.3 °F 27.0 °F 92% 29.48 in 0.2 mi North 35.7 mph 43.7 mph 0.00 in Fog , Snow Heavy Snow
3:03 AM 28.0 °F 11.1 °F 27.0 °F 96% 29.52 in 0.2 mi North 35.7 mph 50.6 mph 0.00 in Fog Light Freezing Fog
3:53 AM 27.0 °F 9.0 °F 26.1 °F 96% 29.53 in 0.2 mi North 39.1 mph 57.5 mph 0.00 in Fog Light Freezing Fog
4:42 AM 27.0 °F 10.3 °F 25.0 °F 92% 29.64 in 0.5 mi North 32.2 mph 52.9 mph N/A Fog Light Freezing Fog
4:53 AM 27.0 °F 9.2 °F 25.0 °F 92% 29.63 in 0.5 mi North 38.0 mph 46.0 mph N/A Fog Light Freezing Fog
5:30 AM 28.0 °F 12.3 °F 25.0 °F 88% 29.70 in 1.2 mi North 29.9 mph 39.1 mph 0.00 in Snow Light Snow
5:53 AM 28.0 °F 14.6 °F 26.1 °F 92% 29.74 in 1.0 mi North 20.7 mph - 0.00 in Snow Light Snow
6:09 AM 28.0 °F 14.3 °F 26.1 °F 92% 29.75 in 1.2 mi North 21.9 mph 28.8 mph 0.00 in Snow Light Snow
6:15 AM 28.9 °F 15.4 °F 26.1 °F 89% 29.75 in 1.5 mi North 21.9 mph - 0.00 in Snow Light Snow
6:39 AM 28.9 °F 13.7 °F 26.1 °F 89% 29.76 in 1.5 mi North 28.8 mph 33.4 mph 0.00 in Snow Light Snow
6:53 AM 28.9 °F 14.3 °F 26.1 °F 89% 29.81 in 1.5 mi North 26.5 mph 34.5 mph 0.00 in Snow Light Snow
7:00 AM 28.9 °F 14.3 °F 26.1 °F 89% 29.78 in 2.0 mi North 26.5 mph 34.5 mph 0.00 in Snow Light Snow
7:11 AM 28.9 °F 15.1 °F 25.0 °F 85% 29.79 in 3.0 mi NNW 23.0 mph 34.5 mph 0.00 in Snow Light Snow
7:23 AM 28.9 °F 15.4 °F 25.0 °F 85% 29.80 in 4.0 mi North 21.9 mph 31.1 mph 0.00 in Snow Light Snow
7:53 AM 28.9 °F 15.4 °F 25.0 °F 85% 29.86 in 5.0 mi NNW 21.9 mph 32.2 mph 0.00 in   Overcast
8:08 AM 28.9 °F 15.1 °F 24.1 °F 82% 29.84 in 10.0 mi NNW 23.0 mph 29.9 mph 0.00 in   Overcast
8:23 AM 28.9 °F 15.4 °F 24.1 °F 82% 29.85 in 9.0 mi NNW 21.9 mph - 0.00 in   Overcast
8:53 AM 28.9 °F 14.8 °F 24.1 °F 82% 29.92 in 9.0 mi North 24.2 mph - 0.00 in   Mostly Cloudy
9:53 AM 30.9 °F 17.8 °F 25.0 °F 79% 29.94 in 10.0 mi North 23.0 mph 28.8 mph N/A   Overcast
10:30 AM 30.9 °F 18.7 °F 24.1 °F 76% 29.93 in 10.0 mi North 19.6 mph 32.2 mph N/A   Mostly Cloudy
10:53 AM 30.0 °F 16.6 °F 23.0 °F 75% 30.00 in 10.0 mi North 23.0 mph - N/A   Overcast
11:53 AM 30.0 °F 16.9 °F 24.1 °F 79% 30.04 in 9.0 mi NNW 21.9 mph 28.8 mph 0.00 in Snow Light Snow
12:28 PM 30.9 °F 18.4 °F 24.1 °F 76% 29.97 in 9.0 mi NNW 20.7 mph 27.6 mph 0.00 in Snow Light Snow
12:53 PM 32.0 °F 20.5 °F 24.1 °F 73% 30.04 in 10.0 mi NNW 18.4 mph - 0.00 in   Overcast
1:53 PM 33.1 °F 20.9 °F 23.0 °F 66% 30.04 in 10.0 mi NNW 21.9 mph - N/A   Overcast
2:44 PM 33.1 °F 21.9 °F 24.1 °F 70% 29.98 in 10.0 mi NNW 18.4 mph - 0.00 in Snow Light Snow
2:53 PM 34.0 °F 22.1 °F 23.0 °F 64% 30.04 in 9.0 mi NNW 21.9 mph - 0.00 in   Mostly Cloudy
3:53 PM 34.0 °F 22.4 °F 23.0 °F 64% 30.06 in 10.0 mi NNW 20.7 mph - N/A   Mostly Cloudy
4:53 PM 34.0 °F 22.7 °F 21.9 °F 61% 30.07 in 10.0 mi North 19.6 mph - N/A   Mostly Cloudy
5:53 PM 33.1 °F 23.9 °F 23.0 °F 66% 30.09 in 10.0 mi North 12.7 mph - N/A   Overcast
6:53 PM 32.0 °F 24.8 °F 21.9 °F 66% 30.10 in 10.0 mi North 8.1 mph - N/A   Overcast
7:53 PM 28.0 °F 22.8 °F 21.0 °F 75% 30.13 in 10.0 mi WNW 4.6 mph - N/A   Mostly Cloudy
8:53 PM 26.1 °F 21.9 °F 19.9 °F 78% 30.16 in 10.0 mi West 3.5 mph - N/A   Mostly Cloudy
9:53 PM 25.0 °F - 19.9 °F 81% 30.17 in 10.0 mi Calm Calm - N/A   Mostly Cloudy
10:53 PM 23.0 °F - 19.0 °F 85% 30.17 in 10.0 mi Calm Calm - N/A   Clear
11:53 PM 21.0 °F - 17.1 °F 85% 30.17 in 10.0 mi Calm Calm - N/A   Clear